Flag for Norway Weather past 2 weeks in Longyearbyen, Svalbard, Norway

Now
9 °F

Clear.


Feels Like: -5 °F
Forecast: -5 / -1 °F
Wind: 9 mph from Southeast

Location: Svalbard Lufthavn

Current Time: Dec 21, 2014 at 9:45:50 AM

Latest Report: Dec 21, 2014 at 8:50 AM


Visibility: N/A

Pressure: 29.68 "Hg

Humidity: 78%

Dew point: 3 °F

Location of LongyearbyenLocation

Historic Weather in Longyearbyen — Graph

°F

Longyearbyen temperature yesterday

Maximum temperature yesterday: 10 °F (at 4:50 AM)
Minimum temperature yesterday: 7 °F (at 1:50 AM)
Average temperature yesterday: 8 °F

Past Weeks' High & Low Weather Summary

 TemperatureHumidityPressure
High25 °F (Dec 7, 9:50 AM)93% (Dec 7, 1:20 PM)29.68 "Hg (Dec 7, 1:20 PM)
Low7 °F (Dec 19, 6:50 AM)53% (Dec 18, 4:50 PM)28.71 "Hg (Dec 7, 4:50 AM)
Average18 °F73%29.15 "Hg
* Reported Dec 6 8:50 AM — Dec 21 8:50 AM, Longyearbyen, Weather by CustomWeather, © 2014

Note: Actual official high and low records may vary slightly from our data, if they occured in-between our weather recording intervals... More about our weather records

Advertising

Longyearbyen weather history for previous 24 hours

 ConditionsComfort  
Time TempWeatherWind HumidityBarometerVisibility
8:50 AM
Dec 21
9 °FClear.9 mph78%29.68 "HgN/A
7:50 AM9 °FClear.9 mph78%29.68 "HgN/A
6:50 AM9 °FPassing clouds.9 mph78%29.65 "HgN/A
5:50 AM9 °FPassing clouds.7 mph78%29.65 "HgN/A
4:50 AM12 °FPassing clouds.7 mph73%29.65 "HgN/A
3:50 AM12 °FPassing clouds.6 mph73%29.65 "HgN/A
2:50 AM10 °FPassing clouds.7 mph79%29.65 "HgN/A
1:50 AM9 °FPassing clouds.8 mph78%29.65 "HgN/A
12:50 AM7 °FPassing clouds.10 mph85%29.62 "HgN/A
11:50 PM
Dec 20
9 °FPassing clouds.9 mph85%29.62 "HgN/A
10:50 PM9 °FPassing clouds.12 mph78%29.62 "HgN/A
9:50 PM9 °FClear.10 mph85%29.62 "HgN/A
8:50 PM7 °FClear.12 mph85%29.59 "HgN/A
7:50 PM9 °FClear.10 mph85%29.59 "HgN/A
6:50 PM9 °FClear.12 mph85%29.59 "HgN/A
5:50 PM9 °FClear.9 mph85%29.56 "HgN/A
4:50 PM9 °FClear.9 mph78%29.56 "HgN/A
3:50 PM9 °FClear.10 mph85%29.56 "HgN/A
2:50 PM10 °FClear.10 mph85%29.53 "HgN/A
1:50 PM9 °FPassing clouds.7 mph85%29.53 "HgN/A
12:50 PM9 °FPassing clouds.10 mph72%29.50 "HgN/A
11:50 AM10 °FPassing clouds.12 mph79%29.50 "HgN/A
10:50 AM10 °FPassing clouds.12 mph79%29.50 "HgN/A
9:50 AM7 °FPassing clouds.14 mph85%29.50 "HgN/A
Weather by CustomWeather, © 2014

See weather overviewHow to use our weather pages